Theta_e
317 319 322 321 319 316 320 324 318 323 321 320 328 324 317 315 334 333 305 303 320 339 340 340 336 331 331 333 333 336 337 337 336 333 332 332 328 327 326 326 329 330 335 335 333 332 332 333 331
316 321 322 316 316 321 323 321 323 322 319 324 326 324 314 316 307 304 301 302 326 335 341 340 337 337 332 332 334 334 335 336 336 336 335 335 333 331 330 325 323 328 332 334 334 332 328 330 332
317 320 319 319 314 321 324 321 319 320 316 323 322 305 302 300 303 301 300 301 308 325 336 340 339 338 337 334 332 332 334 334 334 334 335 335 335 334 331 330 325 326 327 329 330 327 327 327 329
316 318 316 320 322 318 318 315 315 316 316 313 307 302 299 300 300 301 301 301 303 305 311 321 337 338 338 337 336 335 333 331 332 333 333 335 335 334 331 330 329 324 325 329 329 327 326 326 327
318 315 322 321 320 317 312 310 312 314 315 308 314 308 300 300 302 302 303 303 304 305 307 309 318 332 337 339 338 337 337 335 332 331 331 333 333 334 332 330 330 329 327 327 329 328 326 325 324
319 316 323 324 320 316 312 304 312 310 311 305 307 308 300 300 302 302 303 304 306 307 309 309 310 313 319 330 335 336 337 337 336 333 329 329 332 332 333 332 331 330 328 327 327 327 326 325 323
321 320 323 321 319 316 309 300 304 305 305 301 301 308 300 299 301 301 301 304 304 306 308 309 309 309 310 313 321 329 333 335 336 336 333 328 328 330 332 333 331 329 329 327 325 325 326 326 325
316 318 321 314 319 318 303 300 298 299 303 299 298 298 299 299 301 300 300 300 301 301 304 306 306 305 306 307 311 317 326 330 331 331 334 333 329 327 329 332 332 330 328 326 325 324 325 325 325
315 318 319 312 314 311 300 300 298 296 299 297 297 298 298 300 300 300 300 299 299 299 299 300 300 300 300 301 302 306 311 316 321 324 331 331 334 331 327 329 333 332 329 326 325 324 324 324 324
311 314 312 303 302 302 299 298 297 298 298 297 296 297 299 300 299 299 299 300 300 299 299 299 298 298 298 298 298 299 300 301 303 306 315 322 326 332 333 327 331 332 332 328 324 324 323 323 323
299 310 300 298 299 298 298 298 297 298 299 297 296 296 298 299 299 299 299 300 300 299 299 299 299 298 298 299 298 299 298 298 298 299 300 317 323 326 332 333 330 331 332 330 326 324 323 323 322
301 299 299 298 297 298 298 297 298 298 299 297 294 297 298 298 298 299 299 299 300 300 299 299 299 298 298 299 299 299 299 299 299 299 298 298 300 311 318 321 328 329 331 331 328 326 325 324 323
298 297 297 297 297 297 297 297 297 296 295 296 296 297 298 298 298 299 299 299 299 300 299 299 299 298 298 298 298 299 299 299 299 299 299 298 298 300 300 308 321 325 329 329 329 327 324 324 323
297 296 296 297 297 298 298 297 298 297 295 296 297 296 295 296 298 298 299 299 299 299 299 299 299 298 298 298 298 298 299 299 299 298 298 298 298 298 300 299 302 318 316 320 326 327 325 323 323
296 299 299 298 297 298 296 297 296 296 295 295 296 295 294 295 298 298 299 299 300 299 299 299 299 298 298 298 298 298 298 298 298 298 298 298 297 297 298 300 300 300 306 316 316 320 325 324 322
298 297 299 299 296 298 297 299 299 296 294 295 294 293 293 294 297 298 299 299 299 300 299 299 299 298 298 298 297 297 297 297 297 297 297 297 297 297 297 298 299 302 299 301 305 314 319 324 323
294 299 299 298 295 296 298 298 298 295 293 294 293 292 292 293 295 298 299 299 299 299 299 299 299 298 298 298 297 297 297 297 297 296 297 297 297 296 296 297 297 298 300 304 304 307 313 317 324
299 298 298 298 296 295 296 297 296 296 295 293 293 292 292 292 294 298 299 299 299 299 299 298 298 298 298 298 297 297 297 297 296 296 296 297 296 296 295 296 296 297 299 302 304 305 305 312 314
296 298 298 297 295 295 295 294 297 295 293 294 293 293 292 292 295 298 299 299 299 299 299 298 298 298 298 297 297 297 297 297 296 296 296 296 296 296 295 295 296 296 298 299 303 304 307 309 313
298 299 298 296 295 295 295 296 297 295 294 293 293 292 292 293 294 296 298 298 298 298 298 298 298 297 297 297 296 296 296 296 296 296 296 296 296 295 295 295 295 296 297 299 301 303 307 307 310
297 299 297 297 295 294 293 297 299 298 296 295 293 293 293 292 293 293 296 298 297 298 297 297 297 297 297 296 296 295 295 295 295 295 295 295 295 295 295 295 295 296 297 299 300 302 304 304 306
300 296 296 297 297 300 294 301 298 298 296 297 296 292 293 292 293 293 295 296 297 297 297 297 297 296 296 296 295 295 294 294 295 294 295 294 294 295 295 295 295 295 297 298 299 300 302 304 305
298 296 296 296 295 295 297 296 298 297 300 298 296 294 292 292 292 292 294 296 297 297 297 296 296 296 296 295 295 295 294 294 294 294 294 294 294 294 294 294 294 295 296 297 298 299 300 303 304
296 297 297 294 295 299 299 296 300 300 300 300 298 294 293 292 292 292 295 295 296 297 296 295 295 296 296 296 295 294 294 293 293 293 293 293 293 293 294 294 294 294 295 296 297 298 299 300 302
297 299 301 302 299 305 296 296 300 300 298 298 299 296 293 292 292 292 292 294 295 296 295 295 295 295 296 295 294 293 293 293 293 292 291 291 291 292 292 293 293 294 294 295 295 296 298 299 301
295 297 301 300 302 301 297 299 302 297 297 294 295 294 293 292 292 292 293 294 295 295 294 294 294 295 295 294 293 292 292 292 291 290 290 290 290 291 292 293 294 295 295 295 296 297 298 299 300
296 297 295 295 291 297 298 298 299 298 296 295 295 294 293 293 292 292 293 294 294 294 294 294 294 295 294 293 292 291 291 290 290 291 291 291 291 291 291 292 293 293 293 294 294 295 296 298 299
295 294 297 294 297 297 300 300 303 304 302 298 295 294 293 292 292 292 293 294 294 294 294 293 295 294 293 291 291 290 289 289 289 289 290 291 291 291 291 291 291 291 291 292 293 294 294 296 297
294 294 293 293 297 300 300 301 297 300 300 298 295 294 292 292 292 292 291 293 293 293 293 293 294 293 291 290 289 288 288 288 288 289 289 289 289 290 291 291 291 292 291 292 292 293 294 295 296
293 294 295 297 295 294 298 298 298 297 296 296 295 294 293 292 291 290 290 292 292 292 292 294 293 292 290 289 288 288 287 287 287 287 287 287 287 288 288 289 289 290 291 292 292 292 293 295 296
Wind_Speed
23 19 7 4 4 5 2 2 1 4 5 6 5 13 10 4 3 5 17 29 28 23 10 7 6 8 9 8 10 10 10 9 9 8 8 7 7 7 8 8 8 6 8 8 9 5 6 7 7
23 14 4 2 5 4 2 3 1 3 3 3 8 3 7 4 5 4 12 30 27 23 16 8 8 7 10 9 9 10 12 12 11 11 11 11 10 10 10 10 12 11 5 7 7 5 8 8 8
13 8 3 4 3 4 4 1 4 2 4 4 4 7 4 5 6 7 21 22 21 22 18 10 11 8 9 10 12 12 13 13 13 13 14 13 12 12 12 12 13 14 14 11 9 11 11 12 11
7 5 4 4 3 1 1 5 5 7 5 9 4 7 4 13 5 14 19 19 17 18 17 16 8 14 12 12 12 13 14 16 16 17 17 17 14 15 15 15 14 16 18 15 15 16 15 14 15
4 3 4 4 2 3 1 2 6 5 2 6 4 6 6 5 14 15 18 18 18 17 17 18 16 10 11 15 16 17 18 18 18 19 19 19 19 17 18 19 18 16 17 17 17 18 19 16 17
3 3 4 4 3 2 1 5 2 4 4 4 5 4 5 12 18 17 18 18 18 19 19 19 17 15 13 11 9 13 18 21 21 21 22 22 22 22 22 20 20 19 18 18 19 21 21 20 17
4 3 5 4 6 1 3 7 3 3 4 4 2 3 1 10 15 16 16 16 18 20 20 20 22 23 20 17 15 14 13 14 20 23 24 25 25 26 27 25 24 22 21 21 22 22 24 22 20
4 3 4 2 5 4 2 5 1 4 1 2 1 1 0 4 12 14 18 20 21 22 21 21 21 23 22 21 20 18 16 15 16 19 21 26 27 29 29 29 28 26 26 25 25 24 25 26 24
2 4 3 4 6 2 2 3 3 2 3 2 3 3 1 3 7 13 17 19 21 22 24 24 24 23 24 23 22 20 19 18 18 19 17 17 25 31 32 33 33 32 31 28 28 28 28 26 26
5 3 4 2 2 2 2 1 3 1 2 1 1 3 1 3 6 8 11 15 19 21 22 22 23 23 25 24 24 24 23 23 22 22 20 20 19 27 34 35 36 37 36 33 31 29 29 29 28
3 3 4 1 2 1 1 1 2 3 4 5 5 4 4 2 3 7 9 10 11 15 18 21 21 22 24 25 26 26 26 26 25 24 24 19 19 19 23 37 38 40 40 38 37 34 33 35 33
6 3 2 3 1 1 1 4 5 3 4 5 8 5 4 4 3 4 4 6 9 13 16 19 20 22 23 24 23 25 26 27 27 27 25 25 25 25 23 23 22 35 39 42 38 36 37 40 40
4 3 3 3 2 2 1 4 5 7 8 5 5 6 5 4 5 5 7 8 9 12 15 16 19 20 22 24 25 26 28 27 27 26 25 26 26 26 24 25 23 17 32 39 39 41 43 44 44
2 5 4 0 3 0 2 3 2 5 6 5 5 6 6 7 7 6 8 10 9 10 13 15 17 19 21 23 24 25 26 27 28 27 26 25 24 24 26 26 23 23 18 14 27 39 38 44 45
5 4 2 1 4 2 1 5 8 3 6 7 6 6 7 9 9 10 9 11 11 13 15 16 18 20 21 22 23 24 26 28 28 29 27 26 25 23 25 25 25 24 27 20 17 19 38 34 35
4 4 1 1 7 1 1 8 3 5 7 9 8 8 7 7 10 10 8 9 9 11 14 16 16 19 21 23 24 25 26 28 29 29 29 27 25 24 25 25 26 23 25 23 27 24 26 33 35
6 1 2 4 3 4 2 7 4 4 8 9 9 9 7 8 10 11 9 9 9 11 14 17 18 21 24 25 27 28 28 30 30 31 30 28 26 23 24 25 26 27 27 22 19 25 26 21 31
3 2 3 4 5 5 4 18 13 10 8 11 10 9 8 8 11 12 10 10 11 12 15 19 20 24 25 27 29 31 32 32 33 35 31 28 29 24 23 24 26 27 25 23 22 22 25 23 22
5 2 2 3 1 5 4 10 23 9 10 14 13 12 10 10 12 13 11 11 13 14 16 22 21 24 25 29 33 34 32 34 36 35 32 27 30 26 25 25 26 26 26 24 22 24 22 22 25
2 1 3 5 1 3 5 17 16 6 6 8 12 12 11 6 7 12 11 11 13 15 18 20 19 23 25 27 29 29 32 36 37 32 27 30 28 25 26 26 28 28 28 23 22 22 20 21 23
2 1 2 2 8 1 8 8 5 3 3 4 6 7 7 10 9 7 9 12 13 14 17 17 19 21 23 25 28 31 33 30 29 28 28 27 30 28 28 28 29 28 27 24 23 21 22 23 24
1 2 2 4 6 3 4 5 8 4 8 5 5 7 8 9 7 5 9 12 12 14 15 17 18 19 21 24 26 28 31 28 29 29 28 32 31 30 27 26 28 28 27 26 25 24 25 24 22
2 1 1 1 2 3 1 2 9 4 6 6 7 8 9 9 8 8 11 12 12 12 15 16 17 19 21 26 29 30 29 27 30 28 29 27 27 26 26 26 25 27 28 28 27 26 26 25 23
2 2 3 3 2 2 1 3 6 4 5 2 3 7 9 9 8 9 11 11 13 12 14 16 17 21 25 27 32 30 31 30 28 29 29 28 27 25 24 25 25 25 25 26 27 28 28 28 27
2 4 3 5 3 4 0 1 12 3 6 5 4 7 9 8 8 6 6 12 12 13 14 15 17 24 26 30 30 29 30 30 29 28 30 29 28 27 27 27 28 27 27 27 27 28 29 29 29
2 3 4 5 2 5 3 7 6 6 5 7 6 6 5 7 6 6 8 12 12 13 13 15 19 22 27 29 30 30 29 27 28 27 27 29 29 30 29 31 33 32 30 28 27 28 29 29 30
3 1 1 5 2 3 4 8 11 7 11 8 9 6 8 8 7 8 9 11 12 12 14 16 18 23 28 29 29 28 27 27 27 29 30 30 31 30 30 30 29 31 35 33 31 30 32 29 30
3 5 3 3 1 5 5 5 8 4 3 2 6 9 9 8 7 7 8 13 12 13 14 16 19 23 27 29 27 26 29 27 28 30 31 32 32 32 33 33 32 31 33 33 31 31 33 33 33
3 2 3 3 4 4 3 6 7 7 4 8 9 10 9 9 8 7 9 15 11 13 14 17 20 24 27 28 26 27 28 28 29 29 30 30 32 34 37 37 37 34 34 32 34 33 33 34 34
1 3 5 4 6 3 2 9 4 7 7 5 9 7 6 7 8 7 11 14 11 13 15 17 20 22 26 28 28 24 26 26 27 29 31 32 36 36 38 38 37 37 35 33 32 34 34 33 34
Wind_Direction
335 345 352 31 61 65 33 24 266 339 15 327 49 89 112 45 34 113 332 353 2 4 333 253 259 254 255 242 244 247 239 249 253 254 251 243 231 228 227 218 224 240 200 189 182 193 173 197 186
341 348 18 77 86 81 277 292 4 23 303 201 76 70 45 77 20 16 9 353 12 14 352 281 265 267 256 251 250 253 252 247 248 254 254 245 244 232 227 232 223 229 232 192 186 201 257 226 211
343 1 67 85 97 132 160 315 295 281 353 22 91 54 51 333 343 1 348 353 13 24 13 324 272 279 276 266 269 262 258 256 258 259 256 247 244 239 233 229 227 227 230 229 235 246 252 247 226
344 15 33 76 86 24 39 308 306 321 354 35 124 76 77 45 7 349 353 4 6 19 24 21 318 271 281 281 281 281 274 265 262 260 258 248 242 239 237 235 241 235 234 235 232 242 243 252 232
32 52 66 84 118 144 69 320 329 35 48 355 358 158 132 22 22 17 11 15 17 19 21 29 29 360 306 285 283 287 285 278 271 266 262 256 255 249 250 244 241 242 238 239 237 233 239 248 232
43 92 76 157 170 166 307 4 309 38 7 4 43 97 152 28 25 20 17 23 31 31 31 28 29 28 14 1 319 304 289 282 280 276 270 267 257 256 253 250 244 239 239 239 236 233 238 238 240
113 88 158 116 153 119 314 339 46 345 358 24 308 110 123 9 20 25 32 39 38 35 31 26 21 20 19 17 4 347 340 317 294 283 276 270 266 263 261 254 251 245 238 239 230 232 237 238 241
102 90 98 32 180 198 302 337 73 42 55 9 22 103 9 345 17 24 38 38 35 32 29 24 18 14 12 11 8 3 355 344 322 339 289 267 269 266 263 258 251 246 244 241 234 229 238 242 243
86 64 137 174 146 209 341 27 34 303 97 47 6 140 184 22 19 24 26 29 29 30 28 25 23 21 18 13 11 5 359 350 345 347 324 330 282 267 264 258 254 252 245 238 239 236 234 239 241
65 90 184 179 137 176 312 299 329 38 45 93 314 312 318 6 16 19 18 14 17 17 19 19 17 15 9 9 5 3 3 360 357 352 343 334 329 295 269 268 258 253 250 243 235 235 237 237 240
22 133 160 184 181 160 206 263 296 148 228 205 187 204 206 225 336 357 7 2 1 7 11 12 10 10 9 7 4 3 359 356 353 353 352 347 335 345 293 264 259 253 250 243 237 232 229 233 233
87 43 151 161 31 157 162 317 301 199 237 175 199 193 180 218 250 261 305 324 338 353 358 3 2 -0 360 360 360 359 358 356 354 350 346 343 336 327 310 334 294 251 246 240 233 231 230 229 228
88 156 96 89 77 136 284 242 239 251 241 227 218 201 223 249 264 277 273 302 318 334 345 351 352 350 351 351 351 352 352 350 348 344 343 343 338 331 332 311 315 309 249 242 233 230 231 231 231
110 111 126 334 14 261 341 271 359 259 198 220 216 228 250 259 274 289 296 297 308 316 327 335 342 343 344 343 343 343 344 343 343 343 339 337 334 332 328 324 315 304 322 346 250 232 231 232 230
124 76 348 247 348 291 29 258 233 240 163 203 230 243 264 256 272 272 285 297 307 315 321 331 337 338 337 337 336 336 338 337 337 337 336 333 331 327 325 322 319 312 306 305 318 298 235 236 232
48 59 66 66 -0 278 266 271 318 191 168 221 235 249 260 265 254 268 283 291 299 299 310 319 327 334 335 334 334 332 332 331 333 332 331 329 324 322 322 317 317 317 319 302 301 294 304 232 230
13 228 276 317 53 312 49 274 275 171 195 229 237 241 247 267 272 262 265 273 287 294 307 316 318 329 334 332 330 328 324 325 328 329 326 326 322 318 316 313 313 314 317 315 307 297 287 312 240
212 192 242 262 337 352 279 269 254 249 229 237 235 238 247 251 250 255 263 264 283 297 305 310 313 325 327 326 324 324 321 322 323 324 323 320 321 313 314 311 309 310 314 305 305 300 289 295 290
102 99 274 262 41 334 237 277 280 241 232 236 229 235 243 236 249 251 258 265 286 299 304 313 307 321 325 327 326 322 317 319 318 320 318 312 316 308 309 307 306 303 298 298 296 294 289 287 280
68 151 276 276 163 6 341 291 282 258 237 224 223 223 227 225 239 248 253 269 283 298 311 317 309 320 325 324 321 316 315 314 315 316 310 307 315 309 303 301 299 298 294 288 286 285 273 273 272
49 31 3 290 325 233 316 290 318 278 257 246 239 219 207 212 226 250 263 271 285 297 316 319 320 322 324 323 320 319 316 314 312 309 307 308 312 307 302 298 297 292 286 276 277 277 275 278 280
322 77 60 335 14 288 14 280 302 323 301 263 248 217 220 219 233 244 252 265 279 302 319 322 322 322 324 324 322 320 314 308 307 306 304 306 308 307 303 295 292 288 282 275 271 274 269 265 267
152 26 57 87 72 348 9 45 271 341 285 265 242 230 228 226 225 247 245 256 286 306 321 325 323 322 328 325 320 315 306 303 304 303 303 301 302 301 298 295 292 284 278 274 273 270 269 265 271
149 128 65 52 72 8 235 136 279 219 217 233 229 229 225 224 235 240 258 284 288 305 322 324 323 324 328 323 319 317 312 306 305 305 305 305 302 295 289 286 287 284 277 272 273 274 268 264 263
119 63 328 348 3 229 348 220 246 269 241 228 213 235 227 219 212 233 279 292 293 313 320 320 322 325 326 324 325 322 313 310 303 305 305 304 308 301 295 292 287 280 278 272 268 266 266 265 262
94 145 158 230 250 279 297 237 252 219 235 253 275 264 219 207 215 232 271 281 286 303 311 316 324 323 327 329 326 319 312 306 303 305 303 299 298 299 295 294 293 287 282 276 269 264 259 260 264
154 140 149 99 64 35 241 288 294 252 262 261 235 235 247 239 224 242 268 291 290 298 307 317 319 324 331 331 326 317 312 303 301 300 297 298 297 297 297 295 293 294 290 285 281 277 273 265 262
160 153 74 6 332 294 278 277 245 294 274 251 236 238 239 236 249 258 279 301 289 291 305 314 322 329 334 333 329 320 313 309 306 304 294 292 295 298 295 289 284 282 283 283 278 273 269 263 260
140 174 61 115 160 199 297 254 219 236 244 240 242 242 233 232 242 270 287 300 281 291 304 316 328 336 337 335 328 323 318 316 312 303 301 303 302 297 292 288 286 281 278 277 276 269 266 262 258
332 218 174 135 229 225 153 267 262 231 246 240 259 268 259 243 264 269 279 294 283 290 309 321 332 338 340 335 331 325 320 321 313 307 307 304 302 303 300 296 291 287 281 274 268 273 270 264 259